BAW32 VHHH-EGLL

Flight info

Callsign BAW32
Flight time N/A
Altitude 32100
Route BEKOL A461 SHL W22 TEPID W24 OSNOV G586 QP B330 ELKAL W179 OMBON W195 IDOPA W197 ANDIM B215 IBANO G470 AKLAS W192 FKG A368 SARIN N161 LEYLA T916 MATAL REBLO UR317 TBN UM11 CRM UL746 ODERO OPT TEGRI GAZDA ARSIN PEROL RENKA INBED BOMBI DENUT L608 LOGAN
Aircraft A35K/H-SDE2E3FGHIJ4J5M1RWXYZ/LB2D1

Departure

Time 2026-05-05 13:00
Airport Hong Kong International Airport (VHHH)

Arrival

Time N/A
Airport London Heathrow Airport (EGLL)
Time Latitude Longitude Altitude Speed Heading
2026-05-05 12:41 22.30899 113.92454 41 ft 0 kts 115°
2026-05-05 12:49 22.30908 113.92432 39 ft 4 kts 115°
2026-05-05 12:49 22.30920 113.92407 38 ft 3 kts 128°
2026-05-05 12:49 22.30940 113.92391 38 ft 4 kts 170°
2026-05-05 12:49 22.30965 113.92393 39 ft 4 kts 200°
2026-05-05 12:50 22.30985 113.92402 37 ft 4 kts 206°
2026-05-05 12:50 22.31009 113.92415 39 ft 4 kts 206°
2026-05-05 12:50 22.31015 113.92418 39 ft 1 kts 206°
2026-05-05 12:52 22.31014 113.92417 39 ft 1 kts 206°
2026-05-05 12:52 22.30999 113.92410 38 ft 5 kts 205°
2026-05-05 12:52 22.30945 113.92382 38 ft 12 kts 206°
2026-05-05 12:53 22.30859 113.92337 41 ft 14 kts 202°
2026-05-05 12:53 22.30767 113.92341 40 ft 14 kts 165°
2026-05-05 12:53 22.30705 113.92287 40 ft 12 kts 245°
2026-05-05 12:53 22.30674 113.92192 41 ft 16 kts 251°
2026-05-05 12:54 22.30578 113.91897 41 ft 23 kts 250°
2026-05-05 12:54 22.30526 113.91735 41 ft 23 kts 251°
2026-05-05 12:54 22.30469 113.91561 41 ft 27 kts 250°
2026-05-05 12:55 22.30407 113.91369 41 ft 27 kts 251°
2026-05-05 12:55 22.30345 113.91177 41 ft 27 kts 251°
2026-05-05 12:55 22.30285 113.90988 41 ft 26 kts 251°
2026-05-05 12:55 22.30227 113.90807 41 ft 26 kts 251°
2026-05-05 12:56 22.30166 113.90619 41 ft 26 kts 250°
2026-05-05 12:56 22.30106 113.90435 41 ft 26 kts 251°
2026-05-05 12:56 22.30047 113.90251 41 ft 26 kts 251°
2026-05-05 12:56 22.29989 113.90070 41 ft 26 kts 251°
2026-05-05 12:57 22.29930 113.89888 41 ft 25 kts 250°
2026-05-05 12:57 22.29894 113.89777 41 ft 6 kts 247°
2026-05-05 12:57 22.29867 113.89743 41 ft 6 kts 211°
2026-05-05 12:57 22.29827 113.89740 41 ft 6 kts 176°
2026-05-05 12:58 22.29773 113.89756 41 ft 10 kts 161°
2026-05-05 12:58 22.29691 113.89786 41 ft 14 kts 160°
2026-05-05 12:58 22.29646 113.89853 41 ft 11 kts 92°
2026-05-05 12:58 22.29665 113.89933 41 ft 11 kts 70°
2026-05-05 12:59 22.29696 113.90029 41 ft 25 kts 71°
2026-05-05 12:59 22.29824 113.90426 41 ft 91 kts 71°
2026-05-05 12:59 22.30103 113.91289 41 ft 151 kts 71°
2026-05-05 13:00 22.30978 113.93833 870 ft 190 kts 69°
2026-05-05 13:00 22.31448 113.95198 1157 ft 202 kts 72°
2026-05-05 13:01 22.32811 113.99628 2113 ft 208 kts 73°
2026-05-05 13:01 22.33280 114.01111 2481 ft 210 kts 73°
2026-05-05 13:01 22.33705 114.02625 2848 ft 212 kts 79°
2026-05-05 13:01 22.33799 114.04223 3213 ft 215 kts 98°
2026-05-05 13:02 22.33401 114.05774 3535 ft 217 kts 117°
2026-05-05 13:02 22.32532 114.07100 3835 ft 217 kts 136°
2026-05-05 13:02 22.31304 114.08077 4142 ft 222 kts 153°
2026-05-05 13:02 22.29875 114.08644 4435 ft 224 kts 168°
2026-05-05 13:03 22.28296 114.08793 4746 ft 228 kts 180°
2026-05-05 13:03 22.26693 114.08762 5019 ft 237 kts 182°
2026-05-05 13:03 22.25003 114.08721 5285 ft 247 kts 182°
2026-05-05 13:03 22.23269 114.08689 5584 ft 257 kts 182°
2026-05-05 13:04 22.21425 114.08665 5892 ft 266 kts 181°
2026-05-05 13:04 22.19581 114.08701 6179 ft 271 kts 175°
2026-05-05 13:04 22.17778 114.09352 6451 ft 282 kts 149°
2026-05-05 13:04 22.16422 114.10851 6998 ft 286 kts 123°
2026-05-05 13:05 22.15759 114.12896 7458 ft 295 kts 98°
2026-05-05 13:05 22.15612 114.15101 8035 ft 296 kts 94°
2026-05-05 13:05 22.15508 114.17321 8616 ft 297 kts 95°
2026-05-05 13:05 22.15387 114.19563 9086 ft 303 kts 95°
2026-05-05 13:06 22.15255 114.21842 9623 ft 305 kts 95°
2026-05-05 13:06 22.15124 114.24137 10167 ft 307 kts 94°
2026-05-05 13:06 22.15292 114.26475 10438 ft 320 kts 79°
2026-05-05 13:06 22.15795 114.28867 10668 ft 333 kts 77°
2026-05-05 13:07 22.16341 114.31298 10941 ft 344 kts 77°
2026-05-05 13:07 22.16908 114.33873 11218 ft 356 kts 77°
2026-05-05 13:07 22.17476 114.36485 11467 ft 367 kts 77°
2026-05-05 13:07 22.18166 114.39118 11675 ft 377 kts 68°
2026-05-05 13:08 22.19555 114.41566 11880 ft 386 kts 46°
2026-05-05 13:08 22.21699 114.43333 12086 ft 391 kts 24°
2026-05-05 13:08 22.24303 114.44159 12283 ft 393 kts
2026-05-05 13:08 22.27008 114.43935 12495 ft 393 kts 341°
2026-05-05 13:09 22.29476 114.42697 12796 ft 390 kts 323°
2026-05-05 13:09 22.31785 114.41121 13130 ft 396 kts 332°
2026-05-05 13:09 22.34457 114.40294 13447 ft 405 kts 347°
2026-05-05 13:09 22.37250 114.39842 13792 ft 409 kts 348°
2026-05-05 13:10 22.40037 114.39382 14096 ft 411 kts 347°
2026-05-05 13:10 22.42885 114.38881 14431 ft 412 kts 347°
2026-05-05 13:10 22.45692 114.38283 14743 ft 411 kts 340°
2026-05-05 13:10 22.48219 114.37052 15112 ft 402 kts 323°
2026-05-05 13:11 22.50258 114.35081 15436 ft 397 kts 306°
2026-05-05 13:11 22.51652 114.32564 15697 ft 395 kts 290°
2026-05-05 13:11 22.52292 114.29742 15976 ft 394 kts 274°
2026-05-05 13:11 22.52339 114.26772 16273 ft 396 kts 272°
2026-05-05 13:12 22.52642 114.23841 16524 ft 398 kts 279°
2026-05-05 13:12 22.53112 114.20908 16829 ft 399 kts 279°
2026-05-05 13:12 22.53689 114.17933 17113 ft 401 kts 285°
2026-05-05 13:12 22.54775 114.15201 17378 ft 404 kts 300°
2026-05-05 13:13 22.56536 114.12821 17646 ft 410 kts 314°
2026-05-05 13:13 22.58830 114.10998 17928 ft 415 kts 326°
2026-05-05 13:13 22.61381 114.09509 18195 ft 418 kts 330°
2026-05-05 13:13 22.64024 114.08149 18443 ft 420 kts 332°
2026-05-05 13:14 22.66620 114.06872 18660 ft 422 kts 332°
2026-05-05 13:14 22.69363 114.05531 18905 ft 423 kts 332°
2026-05-05 13:14 22.72052 114.04199 19128 ft 424 kts 332°
2026-05-05 13:14 22.74739 114.02845 19334 ft 426 kts 331°
2026-05-05 13:15 22.77426 114.01474 19565 ft 428 kts 331°
2026-05-05 13:15 22.80030 114.00135 19785 ft 429 kts 331°
2026-05-05 13:15 22.82705 113.98754 20012 ft 431 kts 331°
2026-05-05 13:15 22.85420 113.97351 20251 ft 432 kts 331°
2026-05-05 13:16 22.88015 113.96011 20493 ft 433 kts 331°
2026-05-05 13:16 22.90684 113.94635 20717 ft 435 kts 331°
2026-05-05 13:16 22.93414 113.93232 20964 ft 436 kts 331°
2026-05-05 13:16 22.96168 113.91800 21210 ft 437 kts 330°
2026-05-05 13:17 22.98921 113.90360 21450 ft 439 kts 330°
2026-05-05 13:17 23.01676 113.88918 21709 ft 440 kts 330°
2026-05-05 13:17 23.04446 113.87470 21965 ft 442 kts 330°
2026-05-05 13:17 23.06272 113.86508 22130 ft 442 kts 329°
2026-05-05 13:18 23.08925 113.84805 22387 ft 440 kts 321°
2026-05-05 13:18 23.12052 113.82014 22728 ft 439 kts 315°
2026-05-05 13:18 23.14291 113.79762 22930 ft 442 kts 314°
2026-05-05 13:18 23.15764 113.78229 23065 ft 443 kts 314°
2026-05-05 13:19 23.17980 113.75887 23341 ft 444 kts 314°
2026-05-05 13:19 23.20196 113.73535 23551 ft 447 kts 314°
2026-05-05 13:19 23.22431 113.71168 23737 ft 449 kts 314°
2026-05-05 13:19 23.24675 113.68801 23985 ft 449 kts 314°
2026-05-05 13:20 23.26810 113.66557 24227 ft 449 kts 314°
2026-05-05 13:20 23.29040 113.64218 24465 ft 450 kts 314°
2026-05-05 13:20 23.31308 113.61840 24720 ft 451 kts 314°
2026-05-05 13:20 23.33570 113.59468 24991 ft 451 kts 314°
2026-05-05 13:21 23.35799 113.57130 25241 ft 452 kts 314°
2026-05-05 13:21 23.38098 113.54718 25530 ft 453 kts 314°
2026-05-05 13:21 23.40343 113.52359 25817 ft 453 kts 314°
2026-05-05 13:21 23.42602 113.49984 26117 ft 454 kts 314°
2026-05-05 13:22 23.44888 113.47580 26404 ft 455 kts 314°
2026-05-05 13:22 23.47079 113.45275 26708 ft 456 kts 314°
2026-05-05 13:22 23.49326 113.42909 26995 ft 457 kts 314°
2026-05-05 13:22 23.51610 113.40503 27288 ft 458 kts 314°
2026-05-05 13:23 23.53847 113.38147 27564 ft 459 kts 314°
2026-05-05 13:23 23.56144 113.35715 27856 ft 460 kts 314°
2026-05-05 13:23 23.58428 113.33264 28108 ft 461 kts 313°
2026-05-05 13:23 23.60711 113.30798 28375 ft 462 kts 313°
2026-05-05 13:24 23.62949 113.28378 28649 ft 462 kts 313°
2026-05-05 13:24 23.65155 113.25814 28943 ft 461 kts 308°
2026-05-05 13:24 23.66756 113.23482 29252 ft 458 kts 302°
2026-05-05 13:24 23.68333 113.20461 29598 ft 456 kts 296°
2026-05-05 13:25 23.69701 113.17350 29950 ft 454 kts 295°
2026-05-05 13:25 23.71013 113.14224 30245 ft 453 kts 294°
2026-05-05 13:25 23.72293 113.11106 30467 ft 453 kts 294°
2026-05-05 13:25 23.73580 113.07968 30678 ft 452 kts 295°
2026-05-05 13:26 23.75061 113.04960 30894 ft 452 kts 301°
2026-05-05 13:26 23.76743 113.02386 31076 ft 453 kts 308°
2026-05-05 13:26 23.78777 113.00027 31239 ft 455 kts 315°
2026-05-05 13:26 23.81259 112.97882 31448 ft 458 kts 323°
2026-05-05 13:27 23.84022 112.96165 31652 ft 462 kts 331°
2026-05-05 13:27 23.87051 112.94890 31892 ft 465 kts 338°
2026-05-05 13:27 23.90102 112.93845 32077 ft 466 kts 339°
2026-05-05 13:27 23.93228 112.92819 32099 ft 470 kts 339°
2026-05-05 13:28 23.99501 112.90785 32099 ft 473 kts 339°
2026-05-05 13:28 24.05694 112.88740 32099 ft 472 kts 339°
2026-05-05 13:29 24.11972 112.86648 32096 ft 472 kts 339°
2026-05-05 13:29 24.18163 112.84583 32106 ft 471 kts 339°
2026-05-05 13:30 24.24432 112.82499 32102 ft 470 kts 339°
2026-05-05 13:30 24.30706 112.80411 32107 ft 469 kts 339°
2026-05-05 13:31 24.36899 112.78339 32104 ft 469 kts 338°
2026-05-05 13:31 24.42712 112.75341 32100 ft 461 kts 323°
2026-05-05 13:32 24.47424 112.70718 32106 ft 456 kts 308°
2026-05-05 13:32 24.50649 112.64799 32108 ft 455 kts 292°
2026-05-05 13:33 24.52138 112.58044 32099 ft 460 kts 277°
2026-05-05 13:33 24.51847 112.51007 32083 ft 464 kts 269°
2026-05-05 13:34 24.52005 112.44071 32076 ft 459 kts 277°
2026-05-05 13:34 24.52618 112.36989 32096 ft 460 kts 278°
2026-05-05 13:35 24.53293 112.29997 32080 ft 460 kts 278°
2026-05-05 13:35 24.53969 112.23013 32093 ft 459 kts 278°
2026-05-05 13:36 24.54635 112.16046 32093 ft 459 kts 278°
2026-05-05 13:36 24.55297 112.09058 32088 ft 460 kts 278°
2026-05-05 13:37 24.55955 112.02098 32088 ft 460 kts 278°
2026-05-05 13:37 24.56607 111.95107 32085 ft 460 kts 278°
2026-05-05 13:38 24.57252 111.88156 32079 ft 461 kts 278°
2026-05-05 13:38 24.57890 111.81261 32080 ft 460 kts 278°
2026-05-05 13:39 24.58529 111.74331 32076 ft 462 kts 278°
2026-05-05 13:39 24.59177 111.67293 32077 ft 463 kts 278°
2026-05-05 13:40 24.59819 111.60273 32077 ft 463 kts 278°
2026-05-05 13:40 24.60454 111.53261 32065 ft 463 kts 278°
2026-05-05 13:41 24.61085 111.46240 32071 ft 463 kts 278°
2026-05-05 13:41 24.61717 111.39248 32069 ft 463 kts 278°
2026-05-05 13:42 24.62338 111.32281 32068 ft 463 kts 278°
2026-05-05 13:42 24.62959 111.25249 32067 ft 463 kts 278°
2026-05-05 13:43 24.63563 111.18228 32064 ft 464 kts 278°
2026-05-05 13:43 24.64161 111.11238 32057 ft 463 kts 278°
2026-05-05 13:44 24.64763 111.04189 32064 ft 464 kts 278°
2026-05-05 13:44 24.65366 110.97111 32061 ft 464 kts 278°
2026-05-05 13:45 24.65965 110.90036 32062 ft 465 kts 278°
2026-05-05 13:45 24.66824 110.83055 32054 ft 462 kts 286°
2026-05-05 13:46 24.69207 110.76551 32058 ft 459 kts 301°
2026-05-05 13:46 24.73202 110.71096 32050 ft 460 kts 314°
2026-05-05 13:47 24.77804 110.66215 32055 ft 461 kts 315°
2026-05-05 13:47 24.82471 110.61365 32051 ft 461 kts 315°
2026-05-05 13:48 24.87093 110.56525 32046 ft 461 kts 315°
2026-05-05 13:48 24.91745 110.51617 32048 ft 461 kts 315°
2026-05-05 13:49 24.96334 110.46761 32040 ft 461 kts 315°
2026-05-05 13:49 25.00996 110.41827 32044 ft 461 kts 315°
2026-05-05 13:50 25.05621 110.36941 32041 ft 460 kts 315°
2026-05-05 13:50 25.10181 110.32127 32030 ft 460 kts 315°
2026-05-05 13:51 25.14810 110.27232 32028 ft 460 kts 315°
2026-05-05 13:51 25.19466 110.22302 32020 ft 461 kts 315°
2026-05-05 13:52 25.24075 110.17451 32016 ft 461 kts 315°
2026-05-05 13:52 25.28738 110.12575 32003 ft 461 kts 315°
2026-05-05 13:53 25.33380 110.07715 32042 ft 461 kts 315°
2026-05-05 13:53 25.38060 110.02805 32045 ft 462 kts 315°
2026-05-05 13:54 25.42712 109.97916 32047 ft 462 kts 315°
2026-05-05 13:54 25.47316 109.93073 32062 ft 462 kts 315°
2026-05-05 13:55 25.52004 109.88134 32057 ft 462 kts 315°
2026-05-05 13:55 25.56638 109.83253 32055 ft 463 kts 315°
2026-05-05 13:56 25.61316 109.78319 32041 ft 463 kts 315°
2026-05-05 13:56 25.65984 109.73384 32049 ft 463 kts 315°
2026-05-05 13:57 25.70648 109.68450 32045 ft 463 kts 315°
2026-05-05 13:57 25.75151 109.63396 32039 ft 462 kts 309°
2026-05-05 13:58 25.78492 109.57314 32039 ft 463 kts 293°
2026-05-05 13:58 25.80510 109.50520 32036 ft 465 kts 288°
2026-05-05 13:59 25.83181 109.40199 32035 ft 465 kts 288°
2026-05-05 14:00 25.85569 109.31011 32039 ft 466 kts 288°
2026-05-05 14:00 25.87680 109.22947 32035 ft 465 kts 288°
2026-05-05 14:01 25.89470 109.16094 32037 ft 466 kts 288°
2026-05-05 14:01 25.91270 109.09193 32032 ft 466 kts 288°
2026-05-05 14:02 25.93075 109.02280 32038 ft 466 kts 288°
2026-05-05 14:02 25.94903 108.95414 32035 ft 466 kts 288°
2026-05-05 14:03 25.96757 108.88458 32033 ft 466 kts 288°
2026-05-05 14:03 25.98592 108.81545 32030 ft 467 kts 288°
2026-05-05 14:04 26.00426 108.74614 32033 ft 467 kts 288°
2026-05-05 14:04 26.02246 108.67734 32030 ft 466 kts 288°
2026-05-05 14:05 26.04088 108.60808 32026 ft 467 kts 288°
2026-05-05 14:05 26.05926 108.53885 32025 ft 467 kts 288°
2026-05-05 14:06 26.07458 108.48103 32027 ft 468 kts 288°
2026-05-05 14:06 26.09277 108.41310 32025 ft 467 kts 289°
2026-05-05 14:07 26.11914 108.34512 32029 ft 469 kts 295°
2026-05-05 14:07 26.14721 108.28006 32026 ft 470 kts 296°
2026-05-05 14:08 26.17583 108.21433 32023 ft 469 kts 296°
2026-05-05 14:08 26.20418 108.14890 32025 ft 470 kts 296°
2026-05-05 14:09 26.23253 108.08316 32029 ft 469 kts 296°
2026-05-05 14:09 26.26073 108.01767 32021 ft 469 kts 296°
2026-05-05 14:10 26.28881 107.95229 32024 ft 470 kts 296°
2026-05-05 14:10 26.31698 107.88664 32024 ft 470 kts 295°
2026-05-05 14:11 26.34503 107.82117 32015 ft 469 kts 296°
2026-05-05 14:11 26.37313 107.75557 32011 ft 468 kts 296°
2026-05-05 14:12 26.40062 107.69125 32012 ft 471 kts 295°
2026-05-05 14:12 26.42881 107.62510 32011 ft 473 kts 295°
2026-05-05 14:13 26.45690 107.55911 32016 ft 473 kts 295°
2026-05-05 14:13 26.48499 107.49312 32016 ft 473 kts 295°
2026-05-05 14:14 26.51326 107.42648 32013 ft 473 kts 295°
2026-05-05 14:14 26.54131 107.36002 32013 ft 473 kts 295°
2026-05-05 14:15 26.56952 107.29348 32017 ft 474 kts 295°
2026-05-05 14:15 26.59765 107.22689 32016 ft 473 kts 295°
2026-05-05 14:16 26.62571 107.16041 32012 ft 474 kts 295°
2026-05-05 14:16 26.65381 107.09411 32010 ft 474 kts 295°
2026-05-05 14:17 26.68206 107.02765 31996 ft 473 kts 295°
2026-05-05 14:17 26.71033 106.96104 31997 ft 474 kts 295°
2026-05-05 14:18 26.73848 106.89454 31995 ft 474 kts 295°
2026-05-05 14:18 26.76662 106.82819 31997 ft 474 kts 296°
2026-05-05 14:19 26.80279 106.76756 31992 ft 476 kts 311°
2026-05-05 14:19 26.85016 106.71741 31985 ft 478 kts 316°
2026-05-05 14:20 26.90044 106.66842 31984 ft 478 kts 317°
2026-05-05 14:20 26.95066 106.61971 31976 ft 477 kts 317°
2026-05-05 14:21 27.00078 106.57072 31969 ft 476 kts 317°
2026-05-05 14:21 27.05032 106.52206 31966 ft 477 kts 316°
2026-05-05 14:22 27.10018 106.47298 31962 ft 477 kts 316°
2026-05-05 14:22 27.15020 106.42369 31953 ft 479 kts 316°
2026-05-05 14:23 27.20008 106.37451 31955 ft 479 kts 316°
2026-05-05 14:23 27.25037 106.32542 31950 ft 478 kts 317°
2026-05-05 14:24 27.30076 106.27649 31952 ft 475 kts 317°
2026-05-05 14:24 27.35020 106.22837 31945 ft 475 kts 317°
2026-05-05 14:25 27.39989 106.17989 31946 ft 475 kts 317°
2026-05-05 14:25 27.44965 106.13127 31944 ft 475 kts 317°
2026-05-05 14:26 27.49968 106.08233 31929 ft 475 kts 317°
2026-05-05 14:26 27.54900 106.03402 31923 ft 474 kts 317°
2026-05-05 14:27 27.59875 105.98522 31924 ft 474 kts 317°
2026-05-05 14:27 27.64857 105.93629 31910 ft 471 kts 317°
2026-05-05 14:28 27.69725 105.88699 31903 ft 470 kts 312°
2026-05-05 14:28 27.73547 105.82787 31904 ft 467 kts 297°
2026-05-05 14:29 27.75899 105.76031 31869 ft 468 kts 288°
2026-05-05 14:29 27.77824 105.69052 31870 ft 469 kts 287°
2026-05-05 14:30 27.79757 105.62031 31859 ft 469 kts 290°
2026-05-05 14:30 27.82240 105.55257 31863 ft 467 kts 293°
2026-05-05 14:31 27.84829 105.48556 31863 ft 467 kts 294°
2026-05-05 14:31 27.87431 105.41859 31856 ft 467 kts 293°
2026-05-05 14:32 27.90063 105.35216 31848 ft 467 kts 296°
2026-05-05 14:32 27.93021 105.28680 31843 ft 468 kts 297°
2026-05-05 14:33 27.96086 105.22152 31830 ft 468 kts 300°
2026-05-05 14:33 28.00086 105.16462 31818 ft 472 kts 315°
2026-05-05 14:34 28.05415 105.12068 31803 ft 476 kts 324°
2026-05-05 14:34 28.11053 105.08129 31810 ft 478 kts 325°
2026-05-05 14:35 28.16669 105.04254 31811 ft 476 kts 325°
2026-05-05 14:35 28.22221 105.00392 31794 ft 475 kts 325°
2026-05-05 14:36 28.27851 104.96449 31793 ft 475 kts 325°
2026-05-05 14:36 28.33479 104.92499 31791 ft 476 kts 325°
2026-05-05 14:37 28.39134 104.88522 31789 ft 479 kts 325°
2026-05-05 14:37 28.44788 104.84568 31786 ft 480 kts 325°
2026-05-05 14:38 28.50468 104.80600 31786 ft 478 kts 325°
2026-05-05 14:38 28.56096 104.76661 31776 ft 478 kts 325°
2026-05-05 14:39 28.61766 104.72685 31772 ft 478 kts 325°
2026-05-05 14:39 28.67361 104.68756 31765 ft 479 kts 325°
2026-05-05 14:40 28.73017 104.64782 31768 ft 479 kts 325°
2026-05-05 14:40 28.78629 104.60832 31776 ft 478 kts 325°
2026-05-05 14:41 28.84251 104.56871 31773 ft 479 kts 325°
2026-05-05 14:41 28.89911 104.52877 31773 ft 478 kts 324°
2026-05-05 14:42 28.95541 104.48856 31781 ft 479 kts 324°
2026-05-05 14:42 29.01114 104.44869 31781 ft 479 kts 324°
2026-05-05 14:43 29.06743 104.40847 31779 ft 479 kts 324°
2026-05-05 14:43 29.12329 104.36854 31778 ft 480 kts 324°
2026-05-05 14:44 29.18013 104.32786 31783 ft 480 kts 324°
2026-05-05 14:44 29.23759 104.29148 31783 ft 485 kts 334°
2026-05-05 14:45 29.30357 104.27324 31789 ft 495 kts 352°
2026-05-05 14:45 29.37324 104.27835 31791 ft 504 kts
2026-05-05 14:46 29.44090 104.28991 31790 ft 506 kts
2026-05-05 14:46 29.51075 104.30223 31794 ft 506 kts
2026-05-05 14:47 29.58046 104.31426 31795 ft 506 kts
2026-05-05 14:47 29.64953 104.32604 31797 ft 506 kts
2026-05-05 14:48 29.71932 104.33794 31800 ft 507 kts
2026-05-05 14:48 29.78896 104.34983 31799 ft 507 kts
2026-05-05 14:49 29.85882 104.36178 31804 ft 507 kts
2026-05-05 14:49 29.92867 104.37375 31804 ft 506 kts
2026-05-05 14:50 29.99838 104.38572 31803 ft 507 kts
2026-05-05 14:50 30.06726 104.39755 31806 ft 507 kts
2026-05-05 14:51 30.13669 104.40949 31805 ft 507 kts
2026-05-05 14:51 30.20672 104.42164 31812 ft 507 kts
2026-05-05 14:52 30.27677 104.43387 31819 ft 508 kts
2026-05-05 14:52 30.33486 104.44402 31819 ft 508 kts
2026-05-05 14:53 30.40459 104.45621 31818 ft 508 kts
2026-05-05 14:53 30.48590 104.47044 31816 ft 508 kts
2026-05-05 14:54 30.55568 104.48252 31815 ft 507 kts
2026-05-05 14:54 30.61361 104.48317 31817 ft 496 kts 348°
2026-05-05 14:55 30.67974 104.46422 31815 ft 488 kts 338°
2026-05-05 14:55 30.74443 104.43957 31816 ft 489 kts 337°
2026-05-05 14:56 30.80912 104.41430 31817 ft 491 kts 337°
2026-05-05 14:56 30.87519 104.39284 31821 ft 498 kts 347°
2026-05-05 14:57 30.94433 104.38771 31818 ft 503 kts 353°
2026-05-05 14:57 31.01471 104.38581 31828 ft 504 kts 354°
2026-05-05 14:58 31.08486 104.38423 31819 ft 507 kts 354°
2026-05-05 14:58 31.15564 104.38250 31824 ft 507 kts 354°
2026-05-05 14:59 31.22578 104.38067 31824 ft 507 kts 354°
2026-05-05 14:59 31.29592 104.37831 31833 ft 507 kts 353°
2026-05-05 15:00 31.35530 104.37462 31831 ft 507 kts 352°
2026-05-05 15:00 31.43733 104.36923 31837 ft 507 kts 353°
2026-05-05 15:01 31.50777 104.36495 31847 ft 508 kts 353°
2026-05-05 15:01 31.57702 104.36089 31850 ft 507 kts 353°
2026-05-05 15:02 31.64880 104.35671 31881 ft 507 kts 353°
2026-05-05 15:02 31.71917 104.35259 31899 ft 507 kts 353°
2026-05-05 15:03 31.78968 104.34847 31902 ft 507 kts 353°
2026-05-05 15:03 31.85987 104.34483 31910 ft 507 kts 353°
2026-05-05 15:04 31.93046 104.34134 31924 ft 507 kts 353°
2026-05-05 15:04 32.00074 104.33778 31924 ft 507 kts 353°
2026-05-05 15:05 32.10653 104.33235 31937 ft 506 kts 353°
2026-05-05 15:06 32.17672 104.32875 31939 ft 505 kts 353°
2026-05-05 15:06 32.24709 104.32511 31949 ft 505 kts 353°
2026-05-05 15:07 32.31738 104.32147 31949 ft 506 kts 353°
2026-05-05 15:07 32.38725 104.31788 31967 ft 504 kts 353°
2026-05-05 15:08 32.45722 104.31439 31965 ft 503 kts 353°
2026-05-05 15:08 32.52667 104.31105 31964 ft 503 kts 353°
2026-05-05 15:09 32.59688 104.30769 31967 ft 503 kts 353°
2026-05-05 15:09 32.66662 104.30436 31947 ft 502 kts 353°
2026-05-05 15:10 32.73588 104.30101 31960 ft 502 kts 353°
2026-05-05 15:10 32.80579 104.29762 31952 ft 502 kts 353°
2026-05-05 15:11 32.87565 104.29426 31933 ft 502 kts 353°
2026-05-05 15:11 32.94547 104.29091 31928 ft 502 kts 353°
2026-05-05 15:12 33.01501 104.28752 31927 ft 502 kts 353°
2026-05-05 15:12 33.08387 104.28419 31914 ft 502 kts 353°
2026-05-05 15:13 33.15385 104.28093 31917 ft 501 kts 353°
2026-05-05 15:13 33.22288 104.27752 31909 ft 501 kts 353°
2026-05-05 15:14 33.29304 104.27403 31898 ft 502 kts 353°
2026-05-05 15:14 33.36116 104.26096 31899 ft 492 kts 338°
2026-05-05 15:15 33.42222 104.22719 31897 ft 485 kts 327°
2026-05-05 15:15 33.48106 104.18733 31901 ft 486 kts 326°
2026-05-05 15:16 33.53983 104.14691 31888 ft 487 kts 327°
2026-05-05 15:16 33.60361 104.11783 31885 ft 497 kts 344°
2026-05-05 15:17 33.67307 104.11131 31885 ft 505 kts 355°
2026-05-05 15:17 33.74350 104.11132 31860 ft 506 kts 355°
2026-05-05 15:18 33.81402 104.11175 31859 ft 506 kts 355°
2026-05-05 15:18 33.88443 104.11196 31844 ft 505 kts 355°
2026-05-05 15:19 33.95452 104.11191 31848 ft 506 kts 355°
2026-05-05 15:19 34.02493 104.11190 31841 ft 506 kts 355°
2026-05-05 15:20 34.09529 104.11193 31840 ft 506 kts 355°
2026-05-05 15:20 34.16568 104.11194 31850 ft 506 kts 355°
2026-05-05 15:21 34.23484 104.11194 31855 ft 509 kts 355°
2026-05-05 15:21 34.30601 104.11191 31855 ft 511 kts 355°
2026-05-05 15:22 34.37657 104.11193 31861 ft 511 kts 355°
2026-05-05 15:22 34.44723 104.11193 31867 ft 511 kts 355°
2026-05-05 15:23 34.51905 104.11190 31866 ft 517 kts 355°
2026-05-05 15:23 34.59099 104.11191 31873 ft 517 kts 355°
2026-05-05 15:24 34.66305 104.11192 31882 ft 516 kts 355°
2026-05-05 15:24 34.73499 104.11194 31894 ft 517 kts 355°
2026-05-05 15:25 34.80648 104.11191 31893 ft 518 kts 355°
2026-05-05 15:25 34.87856 104.11191 31903 ft 517 kts 355°
2026-05-05 15:26 34.95062 104.11194 31923 ft 517 kts 355°
2026-05-05 15:26 35.02195 104.11195 31922 ft 516 kts 355°
2026-05-05 15:27 35.09352 104.11195 31936 ft 516 kts 355°
2026-05-05 15:27 35.16531 104.11194 31947 ft 516 kts 355°
2026-05-05 15:28 35.23725 104.11193 31964 ft 516 kts 355°
2026-05-05 15:28 35.30735 104.11193 31964 ft 515 kts 355°
2026-05-05 15:29 35.38031 104.11193 31964 ft 516 kts 355°
2026-05-05 15:29 35.45206 104.11194 31987 ft 514 kts 354°
2026-05-05 15:30 35.52345 104.11200 31975 ft 510 kts 354°
2026-05-05 15:30 35.59436 104.11226 31978 ft 510 kts 354°
2026-05-05 15:31 35.66549 104.11260 31973 ft 511 kts 354°
2026-05-05 15:31 35.73597 104.11294 31997 ft 511 kts 354°
2026-05-05 15:32 35.80733 104.11324 31989 ft 511 kts 354°
2026-05-05 15:32 35.87794 104.10789 31993 ft 507 kts 349°
2026-05-05 15:33 35.94782 104.10047 31992 ft 505 kts 349°
2026-05-05 15:33 36.01794 104.09278 31983 ft 502 kts 349°
2026-05-05 15:34 36.08728 104.08514 31987 ft 503 kts 349°
2026-05-05 15:34 36.15693 104.07749 31999 ft 503 kts 349°
2026-05-05 15:35 36.22636 104.06986 31977 ft 501 kts 349°
2026-05-05 15:35 36.29578 104.06234 31978 ft 501 kts 349°
2026-05-05 15:36 36.36546 104.05473 31977 ft 501 kts 349°
2026-05-05 15:36 36.43478 104.04707 31981 ft 501 kts 349°
2026-05-05 15:37 36.50312 104.03930 31986 ft 499 kts 347°
2026-05-05 15:37 36.56818 104.01832 31985 ft 486 kts 331°
2026-05-05 15:38 36.62450 103.97448 31992 ft 473 kts 314°
2026-05-05 15:38 36.66572 103.91330 32012 ft 464 kts 298°
2026-05-05 15:39 36.69733 103.84269 32009 ft 463 kts 295°
2026-05-05 15:39 36.72740 103.77243 32023 ft 465 kts 295°
2026-05-05 15:40 36.75259 103.71364 32026 ft 466 kts 295°
2026-05-05 15:40 36.78311 103.64272 32027 ft 466 kts 295°
2026-05-05 15:41 36.81376 103.57161 32031 ft 466 kts 295°
2026-05-05 15:41 36.84457 103.49996 32032 ft 466 kts 295°
2026-05-05 15:42 36.87519 103.42858 32060 ft 468 kts 294°
2026-05-05 15:42 36.90590 103.35681 32059 ft 469 kts 295°
2026-05-05 15:43 36.93662 103.28486 32073 ft 468 kts 294°
2026-05-05 15:43 36.96916 103.21557 32072 ft 471 kts 299°
2026-05-05 15:44 37.00537 103.14640 32105 ft 469 kts 299°
2026-05-05 15:44 37.04023 103.07892 32105 ft 470 kts 298°
2026-05-05 15:45 37.07531 103.00943 32116 ft 471 kts 298°
2026-05-05 15:45 37.11013 102.93984 32128 ft 471 kts 298°
2026-05-05 15:46 37.14487 102.87027 32137 ft 471 kts 298°
2026-05-05 15:46 37.17942 102.80099 32138 ft 471 kts 298°
2026-05-05 15:47 37.21417 102.73116 32144 ft 472 kts 298°
2026-05-05 15:47 37.24888 102.66127 32141 ft 472 kts 298°
2026-05-05 15:48 37.28339 102.59165 32163 ft 472 kts 298°
2026-05-05 15:48 37.31793 102.52186 32140 ft 470 kts 297°